EW7448 Weather Reports


Display with metric or nautical units.
time (UTC)temp
F
wind
direction
speed
MPH
gust
MPH
rain 1hr
in
rain 24hr
in
rain mn
in
humidity
%
barometer
mb
20260508000051 81 133 0.0 4.0 0.00 0.00 0.00 85 1011.0
20260507234555 82 115 0.0 2.0 0.00 0.00 0.00 83 1011.0
20260507233049 82 131 0.0 3.0 0.00 0.00 0.00 82 1010.8
20260507231551 83 148 1.0 5.0 0.00 0.00 0.00 80 1010.9
20260507230048 84 161 0.0 5.0 0.00 0.00 0.00 79 1010.8
20260507224549 85 53 1.0 5.0 0.00 0.00 0.00 78 1010.8
20260507223051 85 161 0.0 5.0 0.00 0.00 0.00 77 1010.7
20260507221547 86 295 0.0 7.0 0.00 0.00 0.00 75 1010.6
20260507220046 88 134 1.0 4.0 0.00 0.00 0.00 72 1010.6
20260507214546 89 63 0.0 7.0 0.00 0.00 0.00 71 1010.7
20260507213048 90 161 1.0 5.0 0.00 0.00 0.00 68 1010.7
20260507211544 90 194 0.0 6.0 0.00 0.00 0.00 69 1010.8
20260507210044 91 58 1.0 5.0 0.00 0.00 0.00 67 1010.8
20260507204543 91 155 0.0 9.0 0.00 0.00 0.00 68 1011.0
20260507203043 91 261 2.0 9.0 0.00 0.00 0.00 66 1011.1
20260507201538 90 29 0.0 6.0 0.00 0.00 0.00 66 1011.2
20260507200036 91 25 0.0 6.0 0.00 0.00 0.00 65 1011.3
20260507194534 93 238 0.0 3.0 0.00 0.00 0.00 53 1011.5
20260507193032 94 205 1.0 5.0 0.00 0.00 0.00 53 1011.5
20260507191530 94 297 2.0 7.0 0.00 0.00 0.00 53 1011.9
20260507190027 92 124 1.0 6.0 0.00 0.00 0.00 54 1012.3
20260507184526 94 236 0.0 8.0 0.00 0.00 0.00 52 1012.4
20260507183022 93 247 2.0 6.0 0.00 0.00 0.00 59 1012.7
20260507181520 92 312 1.0 6.0 0.00 0.00 0.00 60 1012.9
20260507180019 91 259 0.0 11.0 0.00 0.00 0.00 62 1013.0
20260507174519 91 255 0.0 5.0 0.00 0.00 0.00 61 1013.1
20260507173027 90 301 0.0 5.0 0.00 0.00 0.00 64 1013.1
20260507171516 91 274 1.0 5.0 0.00 0.00 0.00 60 1013.2
20260507170016 90 284 1.0 5.0 0.00 0.00 0.00 63 1013.3
20260507164513 90 58 2.0 6.0 0.00 0.00 0.00 66 1013.4
20260507163009 89 231 0.0 5.0 0.00 0.00 0.00 68 1013.8
20260507161517 89 100 0.0 7.0 0.00 0.00 0.00 67 1013.9
20260507160005 88 215 2.0 6.0 0.00 0.00 0.00 69 1014.0
20260507154502 87 319 1.0 4.0 0.00 0.00 0.00 71 1014.2
20260507153059 86 221 0.0 6.0 0.00 0.00 0.00 72 1014.2
20260507151556 86 259 1.0 5.0 0.00 0.00 0.00 73 1014.4
20260507150056 86 162 1.0 5.0 0.00 0.00 0.00 73 1014.4
20260507144615 85 165 2.0 6.0 0.00 0.00 0.00 73 1014.5
20260507143052 84 188 1.0 5.0 0.00 0.00 0.00 74 1014.4
20260507141609 83 204 3.0 7.0 0.00 0.00 0.00 74 1014.5
20260507140048 83 259 1.0 4.0 0.00 0.00 0.00 76 1014.6
20260507134547 82 169 1.0 5.0 0.00 0.00 0.00 77 1014.6
20260507133039 81 207 0.0 4.0 0.00 0.00 0.00 79 1014.7
20260507131536 79 173 0.0 3.0 0.00 0.00 0.00 83 1014.6
20260507130032 78 176 0.0 4.0 0.00 0.00 0.00 86 1014.6
20260507124528 76 169 0.0 1.0 0.00 0.00 0.00 90 1014.6
20260507123023 74 143 0.0 1.0 0.00 0.00 0.00 94 1014.6
20260507121520 71 141 0.0 1.0 0.00 0.00 0.00 96 1014.6
20260507120019 70 141 0.0 1.0 0.00 0.00 0.00 97 1014.6
20260507114518 68 109 0.0 1.0 0.00 0.00 0.00 97 1014.5
20260507113017 67 259 0.0 0.0 0.00 0.00 0.00 97 1014.4
20260507111523 67 259 0.0 0.0 0.00 0.00 0.00 97 1014.3
20260507110016 66 259 0.0 1.0 0.00 0.00 0.00 97 1014.2
20260507104519 66 259 0.0 1.0 0.00 0.00 0.00 97 1014.3
20260507103014 65 259 0.0 0.0 0.00 0.00 0.00 97 1013.7
20260507101513 66 259 0.0 0.0 0.00 0.00 0.00 97 1013.4
20260507100017 66 259 0.0 0.0 0.00 0.00 0.00 97 1013.2
20260507094511 66 259 0.0 0.0 0.00 0.00 0.00 97 1013.2
20260507093014 66 259 0.0 0.0 0.00 0.00 0.00 96 1013.2
20260507091509 66 259 0.0 0.0 0.00 0.00 0.00 96 1013.1
20260507090015 66 259 0.0 0.0 0.00 0.00 0.00 96 1012.8
20260507084507 67 259 0.0 0.0 0.00 0.00 0.00 96 1012.8
20260507083007 66 259 0.0 0.0 0.00 0.00 0.00 96 1012.7
20260507081513 67 259 0.0 0.0 0.00 0.00 0.00 96 1012.8
20260507080003 67 259 0.0 0.0 0.00 0.00 0.00 95 1012.8
20260507074500 68 260 0.0 0.0 0.00 0.00 0.00 95 1012.8
20260507073103 68 260 0.0 0.0 0.00 0.00 0.00 95 1013.0
20260507071559 68 261 0.0 0.0 0.00 0.00 0.00 95 1013.1
20260507070101 68 260 0.0 0.0 0.00 0.00 0.00 94 1013.4
20260507064553 69 260 0.0 0.0 0.00 0.00 0.00 94 1013.5
20260507063052 69 260 0.0 0.0 0.00 0.00 0.00 94 1013.6
20260507061549 69 260 0.0 0.0 0.00 0.00 0.00 93 1013.7
20260507060055 69 132 0.0 0.0 0.00 0.00 0.00 93 1013.7
20260507054549 70 132 0.0 1.0 0.00 0.00 0.00 93 1013.9
20260507053049 70 132 0.0 0.0 0.00 0.00 0.00 92 1014.1
20260507051540 71 133 0.0 1.0 0.00 0.00 0.00 91 1014.5
20260507050038 71 132 0.0 0.0 0.00 0.00 0.00 91 1014.3
20260507044549 72 132 0.0 0.0 0.00 0.00 0.00 91 1014.2
20260507043033 72 132 0.0 1.0 0.00 0.00 0.00 90 1014.0
20260507041531 72 132 0.0 0.0 0.00 0.00 0.00 90 1014.2
20260507040032 73 132 0.0 0.0 0.00 0.00 0.00 90 1014.2
20260507034531 73 132 0.0 1.0 0.00 0.00 0.00 88 1014.1
20260507033026 74 132 0.0 2.0 0.00 0.00 0.00 88 1014.1
20260507031526 74 157 0.0 1.0 0.00 0.00 0.00 87 1014.0
20260507030026 75 146 0.0 3.0 0.00 0.00 0.00 86 1014.2
20260507024525 74 89 0.0 2.0 0.00 0.00 0.00 86 1014.3
20260507023025 74 128 0.0 2.0 0.00 0.00 0.00 86 1014.3
20260507021528 74 140 0.0 1.0 0.00 0.00 0.00 85 1014.3
20260507020032 74 141 0.0 1.0 0.00 0.00 0.00 85 1014.4
20260507014523 74 141 0.0 0.0 0.00 0.00 0.00 85 1014.3
20260507013022 74 141 0.0 0.0 0.00 0.00 0.00 83 1014.4
20260507011522 75 142 0.0 1.0 0.00 0.00 0.00 81 1014.3
20260507010027 75 135 0.0 1.0 0.00 0.00 0.00 80 1014.2
20260507004529 76 139 0.0 1.0 0.00 0.00 0.00 78 1014.1
20260507003027 76 140 0.0 2.0 0.00 0.00 0.00 76 1014.0
20260507001524 77 138 0.0 1.0 0.00 0.00 0.00 75 1013.9